Location: Rio de Janeiro
(22.9068°S, 43.1729°W)
Time: 13:19:06
(UTC-03:00)

Envisat - Pass Details

Date: 06 December 2023
Orbit: 762 x 764 km, 98.3° (Epoch: 03 March)

Event Time Altitude Azimuth Distance (km) Brightness Sun altitude
Exits shadow 03:25:25 37° 289° (WNW) 1,184 3.5 -19.5°
Maximum altitude 03:25:46 37° 279° (W) 1,175 3.5 -19.4°
Drops below altitude 10° 03:30:28 10° 212° (SSW) 2,317 5.5 -18.6°
Sets 03:32:58 0° 204° (SSW) 3,250 6.4 -18.1°
